Location: Lombard
(41.8800°N, 88.0080°W)
Time: 04:43:18
(UTC-05:00)

Vanguard 2 Rocket - Pass Details

Date: 02 March 2024
Orbit: 555 x 3307 km, 32.9° (Epoch: 12 April)

Event Time Altitude Azimuth Distance (km) Brightness Sun altitude
Rises 18:50:07 0° 272° (W) 5,427 13.0 -13.0°
Reaches altitude 10° 18:54:09 10° 260° (W) 4,822 11.9 -13.8°
Maximum altitude 19:05:02 26° 212° (SSW) 4,477 10.7 -15.8°
Drops below altitude 10° 19:19:00 10° 166° (SSE) 6,212 10.9 -18.4°
Sets 19:25:22 0° 155° (SSE) 7,276 11.2 -19.6°
